Regional Weather Roundup
Issued by NWS

Home | Current Version | Previous Version | Graphics & Text | Print | Product List | Glossary On
Versions: 1 2 3 4 5 6 7 8 9 10 11 12 13 14 15 16 17 18 19 20 21 22 23 24 25 26 27 28 29 30 31 32 33 34 35 36 37 38 39 40 41 42 43 44 45 46 47 48 49 50
000
ASUS43 KTOP 251859
RWRKS

WEATHER ROUNDUP FOR KANSAS
NATIONAL WEATHER SERVICE GOODLAND KS
200 PM CDT THU AUG 25 2016

NOTE:  "FAIR" INDICATES FEW OR NO CLOUDS BELOW 12,000 FEET WITH NO
SIGNIFICANT WEATHER AND/OR OBSTRUCTIONS TO VISIBILITY.

KSZ001>006-013>018-027>032-041>047-252000-
NORTHWEST KANSAS

CITY           SKY/WX    TMP DP  RH WIND       PRES   REMARKS
GOODLAND       SUNNY     75  45  34 SE15G24   30.22F
HAYS           MOSUNNY   73  52  46 NE8       30.16F
HILL CITY      PTSUNNY   73  52  47 CALM      30.19F
RUSSELL        CLOUDY    75  57  53 NE12      30.14F
$$

KSZ061>065-074>080-084>089-252000-
SOUTHWEST KANSAS

CITY           SKY/WX    TMP DP  RH WIND       PRES   REMARKS
DODGE CITY     CLOUDY    69  61  75 N7        30.17F
ELKHART          N/A     71  58  63 E7          N/A
GARDEN CITY    CLOUDY    69  60  73 E7        30.18F
GREAT BEND     MOSUNNY   75  57  53 E15       30.14F
LIBERAL        CLOUDY    66  61  82 NE13      30.20S
$$

KSZ066>073-081>083-090>101-252000-
SOUTHEAST KANSAS

CITY           SKY/WX    TMP DP  RH WIND       PRES   REMARKS
CHANUTE        MOSUNNY   87  73  62 S3        30.06F
COFFEYVILLE    MOSUNNY   92  68  45 VRB7      30.04F HX  96
HUTCHINSON     CLOUDY    76  66  71 NE6       30.12F
MEDICINE LODGE   N/A     78  65  63 N5        30.12S
NEWTON         CLOUDY    77  68  73 MISG      30.10F
PARSONS        CLOUDY    89  68  49 NW8       30.06F
WICHITA INTL   PTSUNNY   83  66  56 W6        30.08F
WICHITA JABRA  MOSUNNY   82  67  60 CALM      30.08F
WINFIELD       PTSUNNY   84  71  65 NW3       30.08F
$$

KSZ007>012-019>026-033>040-048>060-102>105-252000-
NORTHEAST KANSAS

CITY           SKY/WX    TMP DP  RH WIND       PRES   REMARKS
CONCORDIA      CLOUDY    73  60  63 NE8       30.14F
EMPORIA        PTSUNNY   80  69  69 CALM      30.08F
LAWRENCE       MOSUNNY   82  70  66 SW5       30.06F
MANHATTAN      CLOUDY    76  66  71 NE10      30.10F
OLATHE IND     PTSUNNY   82  69  64 SW7       30.07F
OLATHE EXE     PTSUNNY   80  69  69 SW7       30.07F
SALINA         CLOUDY    75  63  66 N10       30.12F
TOPEKA BILLARD   N/A     79  69  71 CALM      30.07F
TOPEKA FORBES  PTSUNNY   80  70  71 NW9       30.07F
$$



USA.gov is the U.S. government's official web portal to all federal, state and local government web resources and services.